Powrót do katalogu

TIANPING-2C

AktywnyNaukaSSO
NORAD 52155·PAYLOAD·🇨🇳 China
Ta nazwa satelity nie została jeszcze potwierdzona przez oficjalne źródła.

Wystrzelony Mar 30, 2022 z Jiuquan Satellite Launch Center

Loading…

Następne Przeloty (najbliższe 24 godziny)

TLE

ŚwieżeSource: Space-Track

Epoka: Sep 14, 2026, 13:50 UTC

1 52155U 22032C   26257.57662884  .00000994  00000-0  80237-4 0  9991
2 52155  97.5805 300.8004 0018861 225.4681 134.5004 15.01968775243691

Śledź TIANPING-2C w czasie rzeczywistym z AllMySat

Download on the App Store